Change the Weather History Date:

Friday, June 14, 2013

  Actual Average Record
Temperature  
Mean Temperature 72 °F -  
Max Temperature 83 °F 83 °F 89 °F (2002)
Min Temperature 60 °F 62 °F 55 °F (1998)
Cooling Degree Days 6    
Growing Degree Days 22 (Base 50)    
Moisture  
Dew Point 61 °F    
Average Humidity 66    
Maximum Humidity 88    
Minimum Humidity 32    
Precipitation  
Precipitation 0.00 in 0.02 in - ()
Sea Level Pressure  
Sea Level Pressure 30.05 in    
Wind  
Wind Speed 5 mph ()    
Max Wind Speed 16 mph    
Max Gust Speed -    
Visibility 13.2 miles    
Events      
Averages and records for this station are not official NWS values.
T = Trace of Precipitation, MM = Missing Value Source: Averaged Metar Reports

Daily Weather History Graph

Daily Weather History Graph

Search for Another Location

Airport or City:

Trip Planner

Search our weather history database for the weather conditions in past years. The results will help you decide how hot, cold, wet, or windy it might be!

Date:

Astronomy

Jun. 14, 2013 Rise Set
Actual Time 6:21 AM CEST 9:17 PM CEST
Civil Twilight 5:48 AM CEST 9:50 PM CEST
Nautical Twilight 5:07 AM CEST 10:31 PM CEST
Astronomical Twilight 4:20 AM CEST 11:19 PM CEST
Moon 11:39 AM CEST (6/14) 12:17 AM CEST (6/14)
Length of Visible Light 16h 01m
Length of Day
14h 56m
Waxing Crescent, 28% of the Moon is Illuminated
Jun 14
Waxing Crescent
Jun 16
First Quarter
Jun 23
Full
Jun 30
Last Quarter
Jul 8
New

Hourly Weather History & Observations

Time (CEST) Temp. Heat Index Dew Point Humidity Pressure Visibility Wind Dir Wind Speed Gust Speed Precip Events Conditions
12:00 AM 68.0 °F - 60.8 °F 78% 30.06 in - East 2.3 mph - N/A   Clear
12:30 AM 66.2 °F - 59.0 °F 78% 30.06 in - Calm Calm - N/A   Clear
1:00 AM 66.2 °F - 59.0 °F 78% 30.06 in - Calm Calm - N/A   Clear
1:30 AM 64.4 °F - 59.0 °F 83% 30.06 in - NE 2.3 mph - N/A   Clear
2:00 AM 64 °F - 57 °F 73% 30.09 in 9 mi ENE 1.2 mph - -   Clear
2:00 AM 64.4 °F - 59.0 °F 83% 30.06 in - East 1.2 mph - N/A   Clear
2:30 AM 64.4 °F - 59.0 °F 83% 30.06 in - NE 1.2 mph - N/A   Clear
3:00 AM 62.6 °F - 57.2 °F 82% 30.06 in - Calm Calm - N/A   Clear
3:30 AM 62.6 °F - 57.2 °F 82% 30.06 in - NE 1.2 mph - N/A   Clear
4:00 AM 62.6 °F - 57.2 °F 82% 30.06 in - NE 1.2 mph - N/A   Clear
4:30 AM 62.6 °F - 57.2 °F 82% 30.06 in - ENE 6.9 mph - N/A   Clear
5:00 AM 62.6 °F - 57.2 °F 82% 30.06 in - East 8.1 mph - N/A   Clear
5:30 AM 66.2 °F - 60.8 °F 83% 30.06 in - ESE 4.6 mph - N/A   Clear
6:00 AM 64.4 °F - 60.8 °F 88% 30.06 in - Variable 2.3 mph - N/A   Clear
6:30 AM 66.2 °F - 60.8 °F 83% 30.06 in - Calm Calm - N/A   Clear
7:00 AM 66.2 °F - 62.6 °F 88% 30.06 in - Calm Calm - N/A   Clear
7:30 AM 69.8 °F - 62.6 °F 78% 30.06 in - ENE 10.4 mph - N/A   Clear
8:00 AM 71 °F - 61 °F 64% 30.08 in 12 mi ENE 8.1 mph - -  
8:00 AM 71.6 °F - 62.6 °F 73% 30.06 in - ENE 12.7 mph - N/A   Clear
8:30 AM 73.4 °F - 62.6 °F 69% 30.06 in - ENE 9.2 mph - N/A   Clear
9:00 AM 75.2 °F - 62.6 °F 65% 30.06 in - ENE 5.8 mph - N/A   Clear
9:30 AM 77.0 °F - 62.6 °F 61% 30.06 in - ENE 6.9 mph - N/A   Clear
10:00 AM 78.8 °F - 60.8 °F 54% 30.06 in - ENE 5.8 mph - N/A   Clear
10:30 AM 80.6 °F 81.1 °F 59.0 °F 48% 30.06 in - ENE 4.6 mph - N/A   Clear
11:00 AM 82.4 °F 82.5 °F 59.0 °F 45% 30.06 in - NE 1.2 mph - N/A   Clear
11:30 AM 80.6 °F 81.8 °F 62.6 °F 54% 30.06 in - SW 9.2 mph - N/A   Clear
12:00 PM 80.6 °F 81.5 °F 60.8 °F 51% 30.06 in - SW 10.4 mph - N/A   Clear
12:30 PM 80.6 °F 81.5 °F 60.8 °F 51% 30.06 in - SW 11.5 mph - N/A   Clear
1:00 PM 80.6 °F 81.5 °F 60.8 °F 51% 30.06 in - SW 13.8 mph - N/A   Clear
1:30 PM 80.6 °F 80.8 °F 57.2 °F 45% 30.06 in - SW 15.0 mph - N/A   Clear
2:00 PM 81 °F - 56 °F 32% 30.07 in 15 mi SW 16.1 mph - -  
2:00 PM 80.6 °F 80.8 °F 57.2 °F 45% 30.06 in - SW 16.1 mph - N/A   Clear
2:30 PM 80.6 °F 81.5 °F 60.8 °F 51% 30.06 in - WSW 15.0 mph - N/A   Clear
3:00 PM 80.6 °F 81.5 °F 60.8 °F 51% 30.06 in - SW 15.0 mph - N/A   Clear
3:30 PM 80.6 °F 81.5 °F 60.8 °F 51% 30.06 in - SW 13.8 mph - N/A   Clear
4:00 PM 80.6 °F 81.1 °F 59.0 °F 48% 30.04 in - SW 13.8 mph - N/A   Clear
4:30 PM 78.8 °F - 59.0 °F 51% 30.04 in - SW 12.7 mph - N/A   Clear
5:00 PM 78.8 °F - 59.0 °F 51% 30.04 in - SW 11.5 mph - N/A   Clear
5:30 PM 78.8 °F - 60.8 °F 54% 30.04 in - SW 12.7 mph - N/A   Clear
6:00 PM 78.8 °F - 59.0 °F 51% 30.04 in - SW 10.4 mph - N/A   Clear
6:30 PM 78.8 °F - 59.0 °F 51% 30.04 in - SW 10.4 mph - N/A   Clear
7:00 PM 78.8 °F - 57.2 °F 47% 30.01 in - SW 6.9 mph - N/A   Clear
7:30 PM 78.8 °F - 59.0 °F 51% 30.01 in - SW 4.6 mph - N/A   Clear
8:00 PM 77 °F - 62 °F 50% 30.02 in 17 mi WSW 6.9 mph - -  
8:00 PM 77.0 °F - 62.6 °F 61% 30.01 in - WSW 6.9 mph - N/A   Clear
8:30 PM 75.2 °F - 64.4 °F 69% 30.01 in - WSW 3.5 mph - N/A   Clear
9:00 PM 73.4 °F - 66.2 °F 78% 30.01 in - WSW 2.3 mph - N/A   Clear
9:30 PM 73.4 °F - 66.2 °F 78% 30.01 in - WSW 1.2 mph - N/A   Clear
10:00 PM 71.6 °F - 66.2 °F 83% 30.04 in - Calm Calm - N/A   Clear
10:30 PM 71.6 °F - 66.2 °F 83% 30.04 in - Calm Calm - N/A   Clear
11:00 PM 69.8 °F - 64.4 °F 83% 30.04 in - North 1.2 mph - N/A   Clear
11:30 PM 69.8 °F - 62.6 °F 78% 30.04 in - Calm Calm - N/A   Clear